Regional Weather Roundup
Issued by NWS

Home | Current Version | Previous Version | Text Only | Print | Product List | Glossary Off
Versions: 1 2 3 4 5 6 7 8 9 10 11 12 13 14 15 16 17 18 19 20 21 22 23 24 25 26 27 28 29 30 31 32 33 34 35 36 37 38 39 40 41 42 43 44 45 46 47 48 49 50

445
ASUS43 KDMX 301201
RWRIA

WEATHER ROUNDUP FOR IOWA
NATIONAL WEATHER SERVICE DES MOINES IA
700 AM CDT TUE MAY 30 2017

NOTE: "FAIR" INDICATES FEW OR NO CLOUDS BELOW 12,000 FEET WITH NO
SIGNIFICANT WEATHER AND/OR OBSTRUCTIONS TO VISIBILITY.

* - THESE STATIONS ARE NOT NWS STATIONS...THUS NOT UNDER NWS
QUALITY CONTROL.  THEY ALSO DO NOT REPORT WEATHER SUCH
AS PRECIPITATION OR FOG.

IAZ001>003-012>014-020>022-031>034-043>046-301300-
   NORTHWEST IOWA

CITY           SKY/WX    TMP DP  RH WIND       PRES   REMARKS
CARROLL *      CLOUDY    55  46  71 W6        30.02S
CHEROKEE *     PTSUNNY   50  46  88 S5        30.02S
DENISON *      MOSUNNY   50  45  81 CALM      30.05S
LE MARS *      SUNNY     52  45  76 CALM      30.04R
ORANGE CITY *  SUNNY     52  46  82 W7        30.02R
SHELDON *      MOSUNNY   52  43  71 W8        29.99S
SIOUX CITY     SUNNY     48  43  82 W3        30.04R
6HR MIN TEMP:  45; 6HR MAX TEMP:  51;

SPENCER        CLOUDY    53  45  74 W9        30.00R
6HR MIN TEMP:  45; 6HR MAX TEMP:  53;

STORM LAKE *   MOSUNNY   52  43  71 SW7       30.02S
$$

IAZ055>058-069>071-079>083-090>094-301300-
   SOUTHWEST IOWA

CITY           SKY/WX    TMP DP  RH WIND       PRES   REMARKS
ATLANTIC *     SUNNY     50  46  87 CALM      30.05S
AUDUBON *      MOSUNNY   50  46  87 CALM      30.05S
CLARINDA *     MOSUNNY   50  50 100 SW3       30.09R
COUNCIL BLFS * SUNNY     54  46  76 SW8       30.05S
CRESTON *      SUNNY     54  45  71 SW6       30.07R
HARLAN  *      MOSUNNY   50  48  93 S5        30.08S
LAMONI         SUNNY     53  45  74 SW9       30.06R
6HR MIN TEMP:  49; 6HR MAX TEMP:  55;

RED OAK *      SUNNY     50  46  87 CALM      30.07R
SHENANDOAH *   PTSUNNY   52  48  87 CALM      30.07S
$$

IAZ047>049-059>061-072>074-084-301300-
   CENTRAL IOWA

CITY           SKY/WX    TMP DP  RH WIND       PRES   REMARKS
AMES           CLOUDY    55  47  74 SW8       30.01S
6HR MIN TEMP:  48; 6HR MAX TEMP:  55;

ANKENY *       CLOUDY    54  46  76 SW5       30.04S
BOONE *        CLOUDY    54  50  87 SW7       30.01S
CHARITON *     PTSUNNY   54  46  76 SW5       30.04S
DES MOINES     PTSUNNY   55  46  71 SW3       30.03R
6HR MIN TEMP:  52; 6HR MAX TEMP:  58;

GRINNELL*      CLOUDY    52  46  80 SW6       30.04R
KNOXVILLE *    CLOUDY    52  45  76 W7        30.02S
MARSHALLTOWN   PTSUNNY   52  47  83 W6        30.00R
6HR MIN TEMP:  47; 6HR MAX TEMP:  52;

NEWTON *       CLOUDY    52  46  82 W6        30.02R
PELLA *        MOSUNNY   55  46  74 W3        30.04R
PERRY *        PTSUNNY   54  47  78 W8        30.03S
$$

IAZ004>006-015-016-023>025-035-036-301300-
   NORTH CENTRAL IOWA

CITY           SKY/WX    TMP DP  RH WIND       PRES   REMARKS
ALGONA *       CLOUDY    54  45  71 W10       29.99S
CLARION *      CLOUDY    54  46  76 W12       29.99S
ESTHERVILLE    CLOUDY    52  46  80 W8        29.98R
6HR MIN TEMP:  46; 6HR MAX TEMP:  52;

FORT DODGE *   CLOUDY    54  45  71 SW6       30.01S
MASON CITY     CLOUDY    53  43  68 W10       29.99R
6HR MIN TEMP:  49; 6HR MAX TEMP:  53;

FOREST CITY *  CLOUDY    52  41  66 W5        29.98R
WEBSTER CITY * CLOUDY    54  46  76 SW8       29.99R
IOWA FALLS *   CLOUDY    53  46  77 SW9       30.01S
$$

IAZ007>011-017>019-026>030-037>042-050>054-066-301300-
   NORTHEAST IOWA

CITY           SKY/WX    TMP DP  RH WIND       PRES   REMARKS
CEDAR RAPIDS   MOSUNNY   53  49  86 SW10      29.99S
6HR MIN TEMP:  48; 6HR MAX TEMP:  53;

CHARLES CITY * CLOUDY    54  46  76 W8        29.97R
CLINTON *      SUNNY     54  49  83 W6        30.00R
DECORAH *      CLOUDY    52  46  82 VRB6      29.94R
DUBUQUE        SUNNY     53  46  77 W10       29.97S
6HR MIN TEMP:  49; 6HR MAX TEMP:  53;

MONTICELLO *   SUNNY     55  48  76 SW6       29.98S
OELWEIN *      MOSUNNY   50  48  93 SW7       29.98S
WATERLOO       CLOUDY    53  45  74 W10       29.98R
6HR MIN TEMP:  47; 6HR MAX TEMP:  54;

$$

IAZ064-065-067-068-078-301300-
   EAST CENTRAL IOWA

CITY           SKY/WX    TMP DP  RH WIND       PRES   REMARKS
DAVENPORT      SUNNY     55  47  74 W9        30.01R
6HR MIN TEMP:  52; 6HR MAX TEMP:  56;

IOWA CITY      SUNNY     55  48  77 CALM      30.02R
6HR MIN TEMP:  50; 6HR MAX TEMP:  55;

MT. PLEASANT * SUNNY     53  46  75 W5        30.03S
MUSCATINE *    SUNNY     55  48  76 W7        30.02S
QUAD CITIES    SUNNY     57  48  72 W7        30.01R
$$

IAZ062-063-075>077-085>089-095>099-301300-
   SOUTHEAST IOWA

CITY           SKY/WX    TMP DP  RH WIND       PRES   REMARKS
BURLINGTON     SUNNY     57  48  72 W5        30.03R
6HR MIN TEMP:  53; 6HR MAX TEMP:  60;

FAIRFIELD *    SUNNY     54  46  76 W6        30.02S
FORT MADISON * SUNNY     57  46  67 SW3       30.05R
KEOKUK *       SUNNY     54  48  82 CALM      30.04R
OSKALOOSA *      N/A     54  46  73 W8        30.04R
CENTERVILLE *    N/A     52  46  82 CALM      30.07R
OTTUMWA        SUNNY     54  47  77 W7        30.03R
6HR MIN TEMP:  47; 6HR MAX TEMP:  54;

WASHINGTON *   MOSUNNY   55  48  76 W7        30.03S
$$

ABBREVIATIONS USED IN REMARKS
   TC - TEMPERATURES IN CELSIUS
  WCI - WIND CHILL INDEX
   HX - HEAT INDEX
  VSB - VISIBILITY
$$





USA.gov is the U.S. government's official web portal to all federal, state and local government web resources and services.